Location: Sagn�
(15.2046°N, 12.7898°W)
Time: 11:53:15
(UTC+00:00)

ERS-2 - Pass Details

Date: 08 May 2021
Orbit: 491 x 496 km, 98.5° (Epoch: 14 June)

Event Time Altitude Azimuth Distance (km) Brightness Sun altitude
Rises 19:57:48 0° 14° (NNE) 2,558 5.8 -11.5°
Reaches altitude 10° 19:59:52 10° 15° (NNE) 1,676 4.9 -12.0°
Maximum altitude 20:03:28 79° 101° (E) 502 2.0 -12.8°
Drops below altitude 10° 20:07:04 10° 189° (S) 1,674 4.6 -13.6°
Sets 20:09:07 0° 190° (S) 2,555 5.6 -14.0°
